GW5023 Weather Reports


time (UTC)temp
F
wind
direction
speed
knots
gust
knots
rain 1hr
in
rain 24hr
in
rain mn
in
humidity
%
barometer
mb
20260505023028 54 69 0.0 2.6 0.00 0.00 0.00 83 1011.8
20260505021528 55 56 1.7 2.6 0.00 0.00 0.00 82 1011.6
20260505020022 55 118 0.0 2.6 0.00 0.00 0.00 81 1011.6
20260505014528 56 181 0.0 3.5 0.00 0.00 0.00 80 1011.6
20260505013030 56 89 0.9 1.7 0.00 0.00 0.00 81 1011.6
20260505011527 57 56 0.0 1.7 0.00 0.00 0.00 77 1011.6
20260505010020 58 67 0.0 1.7 0.00 0.00 0.00 77 1011.5
20260505004519 59 73 0.0 1.7 0.00 0.00 0.00 75 1011.4
20260505003010 60 352 0.0 1.7 0.00 0.00 0.00 75 1011.2
20260505001515 60 270 0.0 1.7 0.00 0.00 0.00 73 1011.2
20260505000021 62 244 0.0 1.7 0.00 0.00 0.00 68 1011.0
20260504234527 64 275 0.0 2.6 0.00 0.00 0.00 63 1010.9
20260504233009 66 9 0.0 1.7 0.00 0.00 0.00 61 1011.0
20260504231531 67 59 0.0 1.7 0.00 0.00 0.00 56 1011.1
20260504230017 67 28 0.9 1.7 0.00 0.00 0.00 54 1011.2
20260504224518 69 11 0.9 4.3 0.00 0.00 0.00 44 1011.3
20260504223019 69 49 1.7 2.6 0.00 0.00 0.00 45 1011.4
20260504221509 69 40 1.7 7.0 0.00 0.00 0.00 45 1011.5
20260504220016 69 265 0.9 6.1 0.00 0.00 0.00 47 1011.5
20260504214519 70 58 2.6 8.7 0.00 0.00 0.00 46 1011.4
20260504213023 69 232 0.9 12.2 0.00 0.00 0.00 45 1011.2
20260504211509 70 65 2.6 12.2 0.00 0.00 0.00 44 1011.6
20260504210016 71 231 1.7 9.6 0.00 0.00 0.00 44 1011.0
20260504204544 71 12 1.7 5.2 0.00 0.00 0.00 43 1010.9
20260504203027 71 335 2.6 13.0 0.00 0.00 0.00 41 1011.1
20260504201520 72 15 2.6 10.4 0.00 0.00 0.00 42 1011.0
20260504200016 72 294 2.6 7.0 0.00 0.00 0.00 44 1011.3
20260504194520 72 275 0.9 12.2 0.00 0.00 0.00 40 1011.2
20260504193024 73 36 3.5 7.8 0.00 0.00 0.00 38 1011.2
20260504191523 72 57 1.7 13.9 0.00 0.00 0.00 43 1011.1
20260504190025 72 321 2.6 7.8 0.00 0.00 0.00 42 1011.3
20260504184516 72 319 3.5 9.6 0.00 0.00 0.00 41 1011.5
20260504183022 71 81 6.1 11.3 0.00 0.00 0.00 41 1011.7
20260504181525 70 281 7.0 12.2 0.00 0.00 0.00 45 1012.2
20260504180025 71 44 6.1 10.4 0.00 0.00 0.00 44 1012.5
20260504174514 69 275 1.7 7.8 0.00 0.00 0.00 47 1012.5
20260504173020 67 13 1.7 5.2 0.00 0.00 0.00 46 1012.5
20260504171537 65 42 1.7 7.8 0.00 0.00 0.00 51 1013.0
20260504081529 43 41 0.9 1.7 0.00 0.00 0.00 90 1015.9
20260504044532 45 65 0.0 1.7 0.00 0.00 0.00 74 1016.6
20260504043027 46 57 0.0 1.7 0.00 0.00 0.00 72 1016.5
20260504041519 46 58 0.0 1.7 0.00 0.00 0.00 71 1016.4
20260504040024 46 58 0.0 0.9 0.00 0.00 0.00 70 1016.3
20260504034525 46 58 0.0 1.7 0.00 0.00 0.00 68 1016.4
20260504033028 47 57 0.0 1.7 0.00 0.00 0.00 68 1016.3
20260504031527 47 62 0.9 1.7 0.00 0.00 0.00 67 1016.3
20260504030035 47 72 0.0 1.7 0.00 0.00 0.00 68 1016.3
20260504024525 48 52 0.0 1.7 0.00 0.00 0.00 65 1016.2